EW8495 Weather Reports


time (UTC)temp
F
wind
direction
speed
knots
gust
knots
rain 1hr
in
rain 24hr
in
rain mn
in
humidity
%
barometer
mb
20260503184532 63 83 2.6 13.0 0.00 0.00 0.00 51 1017.5
20260503184014 62 146 5.2 13.0 0.00 0.00 0.00 47 1017.8
20260503183514 63 140 4.3 8.7 0.00 0.00 0.00 48 1017.8
20260503183030 63 253 2.6 8.7 0.00 0.00 0.00 55 1018.0
20260503182515 63 253 1.7 7.0 0.00 0.00 0.00 51 1018.0
20260503182016 62 243 1.7 10.4 0.00 0.00 0.00 54 1018.0
20260503181530 62 94 1.7 10.4 0.00 0.00 0.00 51 1018.2
20260503181015 62 240 3.5 10.4 0.00 0.00 0.00 51 1018.4
20260503180516 62 153 4.3 9.6 0.00 0.00 0.00 52 1018.4
20260503180032 62 129 3.5 12.2 0.00 0.00 0.00 54 1018.6
20260503175516 62 99 4.3 12.2 0.00 0.00 0.00 53 1018.6
20260503175015 62 160 4.3 12.2 0.00 0.00 0.00 53 1018.6
20260503174532 61 115 5.2 12.2 0.00 0.00 0.00 55 1018.7
20260503174014 61 130 4.3 10.4 0.00 0.00 0.00 50 1018.8
20260503173514 61 189 4.3 10.4 0.00 0.00 0.00 51 1018.9
20260503173038 62 126 1.7 6.1 0.00 0.00 0.00 53 1019.0
20260503172516 62 254 0.9 11.3 0.00 0.00 0.00 54 1019.0
20260503172015 61 101 3.5 11.3 0.00 0.00 0.00 55 1019.1
20260503171531 61 153 1.7 9.6 0.00 0.00 0.00 49 1019.4
20260503171017 61 175 2.6 9.6 0.00 0.00 0.00 53 1019.3
20260503170515 61 176 3.5 13.9 0.00 0.00 0.00 53 1019.6
20260503151014 58 55 1.7 7.8 0.00 0.00 0.00 58 1020.3
20260503150514 58 267 0.9 5.2 0.00 0.00 0.00 62 1020.4
20260503131018 49 144 1.7 5.2 0.00 0.00 0.00 71 1020.6
20260503130518 49 0 0.0 3.5 0.00 0.00 0.00 75 1020.6
20260503110515 35 0 0.0 0.0 0.00 0.00 0.00 91 1020.1
20260503081531 36 0 0.0 0.0 0.00 0.00 0.00 88 1019.8
20260503081017 36 0 0.0 0.0 0.00 0.00 0.00 88 1019.8
20260503080514 36 0 0.0 0.0 0.00 0.00 0.00 88 1019.8
20260503072515 36 0 0.0 0.0 0.00 0.00 0.00 87 1019.9
20260503072012 36 0 0.0 0.0 0.00 0.00 0.00 87 1019.9
20260503071536 36 0 0.0 0.0 0.00 0.00 0.00 87 1020.0
20260503071016 36 0 0.0 0.0 0.00 0.00 0.00 87 1019.9
20260503070513 36 0 0.0 0.0 0.00 0.00 0.00 86 1019.9
20260503055014 37 0 0.0 0.0 0.00 0.00 0.00 83 1020.4
20260503054535 38 0 0.0 0.0 0.00 0.00 0.00 83 1020.4
20260503054015 38 0 0.0 0.0 0.00 0.00 0.00 83 1020.4
20260503053513 38 0 0.0 0.0 0.00 0.00 0.00 83 1020.4
20260503053033 38 0 0.0 0.0 0.00 0.00 0.00 82 1020.4
20260503052514 38 0 0.0 0.0 0.00 0.00 0.00 82 1020.3
20260503052017 38 0 0.0 0.0 0.00 0.00 0.00 82 1020.4
20260503051535 38 0 0.0 0.0 0.00 0.00 0.00 81 1020.4
20260503051012 38 0 0.0 0.0 0.00 0.00 0.00 81 1020.4
20260503050514 38 0 0.0 0.0 0.00 0.00 0.00 81 1020.4
20260503050037 38 0 0.0 0.0 0.00 0.00 0.00 81 1020.4
20260503045514 39 0 0.0 0.0 0.00 0.00 0.00 80 1020.4
20260503045018 39 0 0.0 0.0 0.00 0.00 0.00 80 1020.4
20260503044532 39 0 0.0 0.0 0.00 0.00 0.00 80 1020.3
20260503044013 39 0 0.0 0.0 0.00 0.00 0.00 79 1020.3
20260503043513 39 0 0.0 0.0 0.00 0.00 0.00 79 1020.4
20260503043031 39 0 0.0 0.0 0.00 0.00 0.00 78 1020.4
20260503042514 39 0 0.0 0.0 0.00 0.00 0.00 78 1020.3
20260503042014 39 0 0.0 0.0 0.00 0.00 0.00 77 1020.2
20260503041537 40 0 0.0 0.0 0.00 0.00 0.00 76 1020.2
20260503041013 40 0 0.0 0.0 0.00 0.00 0.00 76 1020.3
20260503040513 40 0 0.0 0.0 0.00 0.00 0.00 74 1020.3
20260503040029 40 0 0.0 0.0 0.00 0.00 0.00 74 1020.3
20260503035513 40 0 0.0 0.0 0.00 0.00 0.00 73 1020.3
20260503035013 40 0 0.0 0.0 0.00 0.00 0.00 73 1020.2
20260503034531 40 0 0.0 0.0 0.00 0.00 0.00 72 1020.2
20260503034015 41 0 0.0 0.0 0.00 0.00 0.00 71 1020.3
20260503033515 41 0 0.0 0.0 0.00 0.00 0.00 71 1020.4
20260503033033 41 0 0.0 0.0 0.00 0.00 0.00 70 1020.3
20260503032518 41 0 0.0 0.0 0.00 0.00 0.00 70 1020.3
20260503032015 42 0 0.0 0.0 0.00 0.00 0.00 70 1020.3
20260503031531 42 0 0.0 0.0 0.00 0.00 0.00 70 1020.2
20260503031014 42 0 0.0 0.0 0.00 0.00 0.00 69 1020.2
20260503030513 42 0 0.0 0.0 0.00 0.00 0.00 69 1020.2
20260503030044 43 0 0.0 0.0 0.00 0.00 0.00 69 1020.3
20260503025514 43 0 0.0 0.0 0.00 0.00 0.00 68 1020.3
20260503025015 43 0 0.0 0.0 0.00 0.00 0.00 67 1020.2
20260503024530 44 0 0.0 0.0 0.00 0.00 0.00 67 1020.2
20260503024014 44 0 0.0 0.0 0.00 0.00 0.00 67 1020.1
20260503023513 44 0 0.0 0.0 0.00 0.00 0.00 66 1020.1
20260503023031 44 0 0.0 0.0 0.00 0.00 0.00 65 1020.0
20260503022513 45 0 0.0 0.0 0.00 0.00 0.00 65 1020.0
20260503022016 45 0 0.0 0.0 0.00 0.00 0.00 63 1019.9
20260503021529 46 0 0.0 0.0 0.00 0.00 0.00 63 1019.9
20260503021013 46 0 0.0 0.0 0.00 0.00 0.00 62 1019.8
20260503020515 47 0 0.0 0.0 0.00 0.00 0.00 61 1019.9
20260503020030 47 0 0.0 0.0 0.00 0.00 0.00 61 1019.8
20260503015514 48 0 0.0 0.0 0.00 0.00 0.00 60 1019.8
20260503015014 48 0 0.0 0.0 0.00 0.00 0.00 59 1019.7
20260503014530 48 0 0.0 0.0 0.00 0.00 0.00 58 1019.6
20260503014015 49 0 0.0 0.0 0.00 0.00 0.00 57 1019.7
20260503013515 49 0 0.0 0.0 0.00 0.00 0.00 54 1019.6
20260503013036 49 0 0.0 0.0 0.00 0.00 0.00 52 1019.6
20260503012515 49 0 0.0 0.0 0.00 0.00 0.00 51 1019.5
20260503012015 50 0 0.0 0.9 0.00 0.00 0.00 50 1019.4
20260503011530 50 0 0.0 0.9 0.00 0.00 0.00 50 1019.4
20260503011014 50 0 0.0 0.9 0.00 0.00 0.00 49 1019.3
20260503010511 50 0 0.0 0.9 0.00 0.00 0.00 48 1019.3
20260503010036 51 0 0.0 0.0 0.00 0.00 0.00 49 1019.2
20260503005515 51 0 0.0 0.9 0.00 0.00 0.00 48 1019.2
20260503005016 51 0 0.0 0.9 0.00 0.00 0.00 48 1019.2
20260503004531 52 251 0.0 1.7 0.00 0.00 0.00 48 1019.1
20260503004016 52 0 0.0 1.7 0.00 0.00 0.00 49 1019.1
20260503003515 52 0 0.0 2.6 0.00 0.00 0.00 48 1019.1
20260503003029 53 0 0.0 2.6 0.00 0.00 0.00 47 1019.0
20260503002515 53 249 0.0 1.7 0.00 0.00 0.00 47 1018.9
20260503002015 53 0 0.0 1.7 0.00 0.00 0.00 47 1018.9
20260503001541 53 0 0.0 3.5 0.00 0.00 0.00 47 1018.9
20260503001015 53 248 0.0 3.5 0.00 0.00 0.00 45 1018.8
20260503000515 53 249 1.7 3.5 0.00 0.00 0.00 44 1018.8
20260503000030 54 225 0.9 7.8 0.00 0.00 0.00 44 1018.8
20260502235514 54 265 2.6 7.8 0.00 0.00 0.00 44 1018.7
20260502235015 54 255 0.9 6.1 0.00 0.00 0.00 44 1018.6
20260502234537 54 255 1.7 5.2 0.00 0.00 0.00 43 1018.7
20260502234019 55 263 0.9 3.5 0.00 0.00 0.00 44 1018.7
20260502233518 55 245 0.9 7.0 0.00 0.00 0.00 43 1018.7
20260502233030 56 242 0.9 7.0 0.00 0.00 0.00 43 1018.7
20260502232517 56 246 2.6 7.0 0.00 0.00 0.00 41 1018.7
20260502232012 56 221 1.7 6.1 0.00 0.00 0.00 41 1018.6
20260502231530 56 170 1.7 6.1 0.00 0.00 0.00 40 1018.6
20260502231015 56 234 1.7 5.2 0.00 0.00 0.00 42 1018.6
20260502230515 56 221 1.7 5.2 0.00 0.00 0.00 43 1018.7
20260502230034 56 240 1.7 6.1 0.00 0.00 0.00 43 1018.7
20260502225514 56 209 2.6 7.0 0.00 0.00 0.00 42 1018.7
20260502225020 56 232 1.7 7.8 0.00 0.00 0.00 42 1018.6
20260502224532 56 223 2.6 8.7 0.00 0.00 0.00 43 1018.6
20260502224015 56 134 3.5 9.6 0.00 0.00 0.00 42 1018.5
20260502223515 56 254 3.5 9.6 0.00 0.00 0.00 40 1018.6
20260502223032 57 174 2.6 7.8 0.00 0.00 0.00 42 1018.6
20260502222514 57 254 0.9 7.0 0.00 0.00 0.00 42 1018.5
20260502222014 57 210 2.6 9.6 0.00 0.00 0.00 42 1018.5
20260502221532 57 156 4.3 9.6 0.00 0.00 0.00 42 1018.5
20260502221015 58 284 2.6 7.0 0.00 0.00 0.00 43 1018.3
20260502220515 58 240 2.6 7.8 0.00 0.00 0.00 43 1018.3
20260502220030 58 205 2.6 8.7 0.00 0.00 0.00 43 1018.3
20260502215516 58 226 2.6 8.7 0.00 0.00 0.00 46 1018.2
20260502215016 58 254 2.6 7.0 0.00 0.00 0.00 44 1018.3
20260502214531 58 236 1.7 7.0 0.00 0.00 0.00 45 1018.3
20260502214015 57 229 1.7 7.0 0.00 0.00 0.00 45 1018.2
20260502213515 57 260 3.5 7.0 0.00 0.00 0.00 44 1018.2
20260502213030 58 219 2.6 10.4 0.00 0.00 0.00 44 1018.2
20260502212518 58 243 1.7 12.2 0.00 0.00 0.00 48 1018.3
20260502212014 58 201 4.3 12.2 0.00 0.00 0.00 46 1018.2
20260502211530 58 279 1.7 7.8 0.00 0.00 0.00 50 1018.2
20260502211018 58 231 2.6 8.7 0.00 0.00 0.00 47 1018.2
20260502210514 57 160 2.6 9.6 0.00 0.00 0.00 48 1018.3
20260502210031 57 191 5.2 9.6 0.00 0.00 0.00 47 1018.3
20260502205517 57 143 2.6 6.1 0.00 0.00 0.00 51 1018.4
20260502205016 57 0 0.9 8.7 0.00 0.00 0.00 48 1018.3
20260502204530 57 221 2.6 8.7 0.00 0.00 0.00 51 1018.4
20260502204016 56 141 2.6 5.2 0.00 0.00 0.00 52 1018.4
20260502203515 55 138 1.7 5.2 0.00 0.00 0.00 54 1018.6
20260502203029 55 155 1.7 5.2 0.00 0.00 0.00 53 1018.6
20260502202515 55 255 1.7 5.2 0.00 0.00 0.00 53 1018.6
20260502202015 55 247 1.7 4.3 0.00 0.00 0.00 54 1018.7
20260502201530 55 261 0.0 3.5 0.00 0.00 0.00 56 1018.7
20260502201015 55 0 0.9 6.1 0.00 0.00 0.00 54 1018.7
20260502200518 55 214 1.7 6.1 0.00 0.00 0.00 54 1018.8
20260502200032 54 192 0.0 4.3 0.00 0.00 0.00 55 1018.8
20260502195515 54 247 0.9 4.3 0.00 0.00 0.00 54 1018.8
20260502195014 55 243 1.7 6.1 0.00 0.00 0.00 55 1018.9
20260502194533 55 259 1.7 6.1 0.00 0.00 0.00 53 1018.8
20260502194014 55 261 3.5 10.4 0.00 0.00 0.00 54 1018.8
20260502193514 55 17 1.7 10.4 0.00 0.00 0.00 56 1018.9
20260502193030 54 261 0.9 4.3 0.00 0.00 0.00 59 1018.9
20260502192516 54 337 0.9 2.6 0.00 0.00 0.00 57 1018.9
20260502192016 54 264 0.9 2.6 0.00 0.00 0.00 57 1019.0
20260502191529 54 0 0.0 3.5 0.00 0.00 0.00 57 1019.0
20260502191015 54 0 0.0 5.2 0.00 0.00 0.00 56 1019.1
20260502190515 54 232 1.7 6.1 0.00 0.00 0.00 56 1019.1
20260502190037 54 269 1.7 6.1 0.00 0.00 0.00 57 1019.1
20260502185515 54 294 0.9 5.2 0.00 0.00 0.00 57 1019.1
20260502185012 55 255 1.7 5.2 0.00 0.00 0.00 56 1019.0